User: anonymous   Login
Location: Newark
(48.8833°N, 0.9236°W)
Time: 19:56:03
(UTC+00:00)
Language:

Explorer 7 - Orbit

View from above orbital plane
View from above orbital plane
View from above satellite
View from above satellite

Ground track
Ground track

The orbit data is extracted from the following two-line orbital elements,

1    22U 59009A   19317.47372032  .00000167  00000-0  35748-4 0  9991
2    22  50.2852  40.0125 0140113 149.8852 211.0244 14.94986212192863
Epoch (UTC): 13 November 2019 11:22:09
Eccentricity: 0.0140113
inclination: 50.2852°
perigee height: 485 km
apogee height: 680 km
right ascension of ascending node: 40.0125°
argument of perigee: 149.8852°
revolutions per day: 14.94986212
mean anomaly at epoch: 211.0244°
orbit number at epoch: 19286

The dashed part of the orbit path shows where the satellite is in the earth's shadow,  

DLR